When you browse on this site, cookies collect data to enhance your experience and personalize the content and advertising you see.
Visit our Privacy Policy to learn more. By continuing to use the site, you agree to this use of cookies and data.
  • In Sweden
  • List of Countries
  • For 7 days
  • Water Temperature
  • Satellite Maps
  • Weather Map
  • Weather Widgets
  • user-avatar
    Login

    Hourly Weather Belen

    Today, 17 January, Thursday

    Time Temperature Precipitation Wind Pressure Humidity
    00:00 +4°C° 0.1 mm 3 mps 705 mmHg 86%
    01:00 +4°C° 0.1 mm 3 mps 706 mmHg 84%
    02:00 +4°C° 0.1 mm 4 mps 706 mmHg 83%
    03:00 +3°C° 0 mm 4 mps 707 mmHg 77%
    04:00 +1°C° 0 mm 5 mps 708 mmHg 71%
    05:00 +1°C° 0 mm 5 mps 708 mmHg 64%
    06:00 +1°C° 0 mm 5 mps 709 mmHg 62%
    07:00 +1°C° 0 mm 5 mps 710 mmHg 59%
    08:00 +1°C° 0 mm 5 mps 710 mmHg 57%
    09:00 +2°C° 0 mm 5 mps 711 mmHg 51%
    10:00 +5°C° 0 mm 5 mps 712 mmHg 46%
    11:00 +6°C° 0 mm 5 mps 712 mmHg 41%
    12:00 +6°C° 0 mm 5 mps 712 mmHg 41%
    13:00 +6°C° 0 mm 4 mps 712 mmHg 41%
    14:00 +6°C° 0 mm 4 mps 712 mmHg 41%
    15:00 +5°C° 0 mm 4 mps 713 mmHg 45%
    16:00 +4°C° 0 mm 3 mps 713 mmHg 49%
    17:00 +2°C° 0 mm 3 mps 713 mmHg 53%
    18:00 +2°C° 0 mm 3 mps 714 mmHg 53%
    19:00 +3°C° 0 mm 2 mps 714 mmHg 54%
    20:00 +3°C° 0 mm 2 mps 714 mmHg 54%
    21:00 +3°C° 0 mm 2 mps 715 mmHg 54%
    22:00 +3°C° 0 mm 2 mps 715 mmHg 55%
    23:00 +2°C° 0 mm 2 mps 715 mmHg 55%

    Tomorrow, 18 January, Friday

    Time Temperature Precipitation Wind Pressure Humidity
    00:00 +2°C° 0 mm 2 mps 715 mmHg 57%
    01:00 +1°C° 0 mm 3 mps 715 mmHg 59%
    02:00 +1°C° 0 mm 3 mps 715 mmHg 61%
    03:00 +1°C° 0 mm 3 mps 715 mmHg 62%
    04:00 +1°C° 0 mm 2 mps 715 mmHg 63%
    05:00 +1°C° 0 mm 2 mps 715 mmHg 64%
    06:00 +2°C° 0 mm 2 mps 715 mmHg 64%
    07:00 +2°C° 0 mm 2 mps 716 mmHg 63%
    08:00 +4°C° 0 mm 1 mps 716 mmHg 62%
    09:00 +5°C° 0 mm 1 mps 716 mmHg 56%
    10:00 +6°C° 0 mm 1 mps 717 mmHg 50%
    11:00 +8°C° 0 mm 1 mps 717 mmHg 43%
    12:00 +8°C° 0 mm 1 mps 717 mmHg 41%
    13:00 +9°C° 0 mm 1 mps 717 mmHg 40%
    14:00 +9°C° 0 mm 1 mps 716 mmHg 38%
    15:00 +8°C° 0 mm 1 mps 717 mmHg 42%
    16:00 +7°C° 0 mm 1 mps 717 mmHg 45%
    17:00 +5°C° 0 mm 1 mps 717 mmHg 49%
    18:00 +5°C° 0 mm 1 mps 717 mmHg 49%
    19:00 +5°C° 0 mm 1 mps 717 mmHg 50%
    20:00 +4°C° 0 mm 1 mps 717 mmHg 50%
    21:00 +4°C° 0 mm 1 mps 718 mmHg 50%
    22:00 +4°C° 0 mm 1 mps 718 mmHg 50%
    23:00 +3°C° 0 mm 1 mps 718 mmHg 50%

    Day after tomorrow, 19 January, Saturday

    Time Temperature Precipitation Wind Pressure Humidity
    00:00 +2°C° 0 mm 2 mps 718 mmHg 51%
    01:00 +2°C° 0 mm 2 mps 718 mmHg 51%
    02:00 +2°C° 0 mm 2 mps 718 mmHg 51%
    03:00 +1°C° 0 mm 2 mps 717 mmHg 52%
    04:00 +1°C° 0 mm 2 mps 717 mmHg 53%
    05:00 +1°C° 0 mm 2 mps 717 mmHg 54%
    06:00 +2°C° 0 mm 2 mps 717 mmHg 55%
    07:00 +2°C° 0 mm 2 mps 718 mmHg 56%
    08:00 +3°C° 0 mm 2 mps 718 mmHg 57%
    09:00 +4°C° 0 mm 2 mps 718 mmHg 56%
    10:00 +5°C° 0 mm 2 mps 718 mmHg 55%
    11:00 +7°C° 0 mm 2 mps 718 mmHg 54%
    12:00 +7°C° 0 mm 2 mps 718 mmHg 53%
    13:00 +8°C° 0 mm 2 mps 717 mmHg 52%
    14:00 +8°C° 0 mm 2 mps 717 mmHg 52%
    15:00 +8°C° 0 mm 1 mps 717 mmHg 56%
    16:00 +7°C° 0 mm 1 mps 717 mmHg 60%
    17:00 +6°C° 0 mm 1 mps 716 mmHg 65%
    18:00 +5°C° 0 mm 1 mps 717 mmHg 66%
    19:00 +5°C° 0 mm 1 mps 717 mmHg 67%
    20:00 +5°C° 0 mm 1 mps 717 mmHg 68%
    21:00 +5°C° 0 mm 1 mps 717 mmHg 68%
    22:00 +4°C° 0 mm 1 mps 717 mmHg 68%
    23:00 +4°C° 0 mm 1 mps 717 mmHg 68%

    20 January, Sunday

    Time Temperature Precipitation Wind Pressure Humidity
    00:00 +4°C° 0 mm 1 mps 717 mmHg 68%
    01:00 +4°C° 0 mm 1 mps 717 mmHg 68%
    02:00 +3°C° 0 mm 2 mps 717 mmHg 68%
    03:00 +3°C° 0 mm 2 mps 717 mmHg 68%
    04:00 +2°C° 0 mm 2 mps 717 mmHg 68%
    05:00 +2°C° 0 mm 2 mps 716 mmHg 68%
    06:00 +2°C° 0 mm 2 mps 717 mmHg 67%
    07:00 +3°C° 0 mm 2 mps 717 mmHg 67%
    08:00 +3°C° 0 mm 2 mps 717 mmHg 67%
    09:00 +3°C° 0 mm 3 mps 717 mmHg 61%
    10:00 +5°C° 0 mm 3 mps 717 mmHg 55%
    11:00 +7°C° 0 mm 3 mps 717 mmHg 50%
    12:00 +8°C° 0 mm 3 mps 717 mmHg 49%
    13:00 +8°C° 0 mm 3 mps 716 mmHg 48%
    14:00 +9°C° 0 mm 3 mps 716 mmHg 47%
    15:00 +7°C° 0 mm 2 mps 716 mmHg 51%
    16:00 +6°C° 0 mm 2 mps 716 mmHg 54%
    17:00 +5°C° 0 mm 2 mps 716 mmHg 58%
    18:00 +5°C° 0 mm 2 mps 716 mmHg 58%
    19:00 +5°C° 0 mm 2 mps 716 mmHg 59%
    20:00 +4°C° 0 mm 2 mps 717 mmHg 60%
    21:00 +4°C° 0 mm 2 mps 717 mmHg 61%
    22:00 +4°C° 0 mm 2 mps 717 mmHg 62%
    23:00 +4°C° 0 mm 2 mps 716 mmHg 62%

    21 January, Monday

    Time Temperature Precipitation Wind Pressure Humidity
    00:00 +3°C° 0 mm 2 mps 716 mmHg 63%
    01:00 +3°C° 0 mm 2 mps 716 mmHg 64%
    02:00 +3°C° 0 mm 2 mps 716 mmHg 64%
    03:00 +3°C° 0 mm 2 mps 716 mmHg 65%
    04:00 +2°C° 0 mm 2 mps 716 mmHg 66%
    05:00 +2°C° 0 mm 2 mps 716 mmHg 66%
    06:00 +2°C° 0 mm 2 mps 716 mmHg 66%
    07:00 +2°C° 0 mm 3 mps 716 mmHg 65%
    08:00 +2°C° 0 mm 3 mps 716 mmHg 64%
    09:00 +3°C° 0 mm 3 mps 716 mmHg 60%
    10:00 +5°C° 0 mm 3 mps 717 mmHg 55%
    11:00 +7°C° 0 mm 3 mps 717 mmHg 50%
    12:00 +8°C° 0 mm 3 mps 716 mmHg 50%
    13:00 +8°C° 0 mm 2 mps 716 mmHg 49%
    14:00 +9°C° 0 mm 2 mps 715 mmHg 48%
    15:00 +8°C° 0 mm 2 mps 715 mmHg 52%
    16:00 +7°C° 0 mm 2 mps 716 mmHg 56%
    17:00 +6°C° 0 mm 2 mps 716 mmHg 60%
    18:00 +5°C° 0 mm 2 mps 716 mmHg 61%
    19:00 +6°C° 0 mm 1 mps 716 mmHg 62%
    20:00 +6°C° 0 mm 1 mps 716 mmHg 63%
    21:00 +5°C° 0 mm 1 mps 716 mmHg 63%
    22:00 +5°C° 0 mm 1 mps 716 mmHg 63%
    23:00 +5°C° 0 mm 1 mps 716 mmHg 64%

    22 January, Tuesday

    Time Temperature Precipitation Wind Pressure Humidity
    00:00 +5°C° 0 mm 1 mps 716 mmHg 64%
    01:00 +4°C° 0 mm 1 mps 716 mmHg 65%
    02:00 +3°C° 0 mm 2 mps 716 mmHg 65%
    03:00 +3°C° 0 mm 2 mps 716 mmHg 65%
    04:00 +3°C° 0 mm 2 mps 716 mmHg 66%
    05:00 +3°C° 0 mm 2 mps 716 mmHg 66%
    06:00 +3°C° 0 mm 2 mps 716 mmHg 65%
    07:00 +4°C° 0 mm 2 mps 716 mmHg 65%
    08:00 +4°C° 0 mm 2 mps 716 mmHg 64%
    09:00 +6°C° 0 mm 2 mps 717 mmHg 59%
    10:00 +7°C° 0 mm 2 mps 717 mmHg 55%
    11:00 +8°C° 0 mm 2 mps 717 mmHg 50%
    12:00 +9°C° 0 mm 2 mps 716 mmHg 49%
    13:00 +10°C° 0 mm 1 mps 716 mmHg 49%
    14:00 +11°C° 0 mm 1 mps 716 mmHg 49%
    15:00 +10°C° 0 mm 1 mps 716 mmHg 53%
    16:00 +9°C° 0 mm 1 mps 715 mmHg 58%
    17:00 +8°C° 0 mm 1 mps 715 mmHg 62%
    18:00 +7°C° 0 mm 1 mps 715 mmHg 63%
    19:00 +7°C° 0 mm 1 mps 716 mmHg 64%
    20:00 +7°C° 0 mm 1 mps 716 mmHg 65%
    21:00 +7°C° 0 mm 1 mps 716 mmHg 66%
    22:00 +7°C° 0 mm 1 mps 716 mmHg 66%
    23:00 +7°C° 0 mm 1 mps 716 mmHg 67%
    Show more